User: anonymous   Login
Location: The Saddle
(36.8333°N, 80.3417°W)
Time: 07:35:34
(UTC-04:00)
Language:

JY1SAT - Orbit

View from above orbital plane
View from above orbital plane
View from above satellite
View from above satellite

Ground track
Ground track

The orbit data is extracted from the following two-line orbital elements,

1 43803U 18099AX  24110.85875820  .00027843  00000-0  19091-2 0  9992
2 43803  97.5252 170.8661 0011319 139.3562 220.8512 15.05933524293914
Epoch (UTC): 19 April 2024 20:36:36
Eccentricity: 0.0011319
inclination: 97.5252°
perigee height: 541 km
apogee height: 556 km
right ascension of ascending node: 170.8661°
argument of perigee: 139.3562°
revolutions per day: 15.05933524
mean anomaly at epoch: 220.8512°
orbit number at epoch: 29391

The dashed part of the orbit path shows where the satellite is in the earth's shadow,  

DLR